PY4QS Weather Reports


time (UTC)temp
C
wind
direction
speed
KPH
gust
KPH
rain 1hr
cm
rain 24hr
cm
rain mn
cm
humidity
%
barometer
mb
20260504190426 23 0 0.0 0.0 0.00 0.00 0.00 55 1022.5
20260504185919 24 0 0.0 0.0 0.00 0.00 0.00 54 1022.5
20260504184903 24 0 0.0 0.0 0.00 0.00 0.00 54 1022.5
20260504184359 24 0 0.0 0.0 0.00 0.00 0.00 54 1022.5
20260504183850 23 0 0.0 0.0 0.00 0.00 0.00 54 1022.5
20260504183344 24 0 0.0 0.0 0.00 0.00 0.00 53 1022.5
20260504182840 24 0 0.0 0.0 0.00 0.00 0.00 53 1022.5
20260504182333 24 0 0.0 0.0 0.00 0.00 0.00 53 1022.5
20260504181827 24 0 0.0 0.0 0.00 0.00 0.00 53 1022.6
20260504181322 24 0 0.0 0.0 0.00 0.00 0.00 53 1022.5
20260504180816 24 0 0.0 0.0 0.00 0.00 0.00 52 1022.5
20260504180308 24 0 0.0 0.0 0.00 0.00 0.00 53 1022.5
20260504175801 24 0 0.0 0.0 0.00 0.00 0.00 52 1022.5
20260504174750 24 0 0.0 0.0 0.00 0.00 0.00 53 1022.8
20260504173737 24 0 0.0 0.0 0.00 0.00 0.00 53 1022.7
20260504173233 24 0 0.0 0.0 0.00 0.00 0.00 52 1022.7
20260504172726 24 0 0.0 0.0 0.00 0.00 0.00 52 1022.7
20260504172222 25 0 0.0 0.0 0.00 0.00 0.00 51 1022.7
20260504171717 25 0 0.0 0.0 0.00 0.00 0.00 51 1022.8
20260504171213 25 0 0.0 0.0 0.00 0.00 0.00 51 1023.0
20260504170707 25 0 0.0 0.0 0.00 0.00 0.00 51 1022.9
20260504170200 25 0 0.0 0.0 0.00 0.00 0.00 51 1022.9
20260504150442 23 0 0.0 0.0 0.00 0.00 0.00 51 1024.0
20260504140834 23 0 0.0 0.0 0.00 0.00 0.00 51 1024.8
20260504130718 22 0 0.0 0.0 0.00 0.00 0.00 56 1025.3
20260504130211 22 0 0.0 0.0 0.00 0.00 0.00 57 1025.4
20260504100341 16 0 0.0 0.0 0.00 0.00 0.00 72 1023.9
20260504081640 14 0 0.0 0.0 0.00 0.00 0.00 79 1023.4
20260504081134 14 0 0.0 0.0 0.00 0.00 0.00 79 1023.4
20260504080124 13 0 0.0 0.0 0.00 0.00 0.00 80 1023.4
20260504050313 15 0 0.0 0.0 0.00 0.00 0.00 75 1023.4
20260504045807 15 0 0.0 0.0 0.00 0.00 0.00 74 1023.4
20260504045301 15 0 0.0 0.0 0.00 0.00 0.00 74 1023.4
20260504044756 15 0 0.0 0.0 0.00 0.00 0.00 74 1023.5
20260504044251 15 0 0.0 0.0 0.00 0.00 0.00 74 1023.6
20260504043745 15 0 0.0 0.0 0.00 0.00 0.00 74 1023.6
20260504043239 15 0 0.0 0.0 0.00 0.00 0.00 74 1023.6
20260504042733 15 0 0.0 0.0 0.00 0.00 0.00 73 1023.7
20260504042229 15 0 0.0 0.0 0.00 0.00 0.00 73 1023.7
20260504041214 16 0 0.0 0.0 0.00 0.00 0.00 72 1023.7
20260504040708 16 0 0.0 0.0 0.00 0.00 0.00 72 1023.8
20260504040200 16 0 0.0 0.0 0.00 0.00 0.00 72 1023.9
20260504035654 16 0 0.0 0.0 0.00 0.00 0.00 72 1023.9
20260504035149 16 0 0.0 0.0 0.00 0.00 0.00 72 1023.9
20260504034642 16 0 0.0 0.0 0.00 0.00 0.00 72 1024.0
20260504034135 16 0 0.0 0.0 0.00 0.00 0.00 72 1024.0
20260504033631 16 0 0.0 0.0 0.00 0.00 0.00 71 1023.9
20260504033126 16 0 0.0 0.0 0.00 0.00 0.00 71 1023.9
20260504032620 16 0 0.0 0.0 0.00 0.00 0.00 71 1024.0
20260504032113 16 0 0.0 0.0 0.00 0.00 0.00 71 1024.0
20260504031100 16 0 0.0 0.0 0.00 0.00 0.00 71 1024.1
20260504030554 16 0 0.0 0.0 0.00 0.00 0.00 70 1024.1
20260504030047 16 0 0.0 0.0 0.00 0.00 0.00 71 1024.2
20260504025539 16 0 0.0 0.0 0.00 0.00 0.00 71 1024.2
20260504025032 16 0 0.0 0.0 0.00 0.00 0.00 70 1024.3
20260504024020 16 0 0.0 0.0 0.00 0.00 0.00 70 1024.3
20260504021952 16 0 0.0 0.0 0.00 0.00 0.00 71 1024.3
20260504021447 16 0 0.0 0.0 0.00 0.00 0.00 70 1024.4
20260504020941 16 0 0.0 0.0 0.00 0.00 0.00 70 1024.3
20260504020435 16 0 0.0 0.0 0.00 0.00 0.00 70 1024.3
20260504015928 16 0 0.0 0.0 0.00 0.00 0.00 70 1024.3
20260504014916 16 0 0.0 0.0 0.00 0.00 0.00 70 1024.3
20260504014410 16 0 0.0 0.0 0.00 0.00 0.00 70 1024.3
20260504013904 16 0 0.0 0.0 0.00 0.00 0.00 69 1024.3
20260504012848 16 0 0.0 0.0 0.00 0.00 0.00 69 1024.4
20260504012341 16 0 0.0 0.0 0.00 0.00 0.00 69 1024.4
20260504011835 16 0 0.0 0.0 0.00 0.00 0.00 69 1024.5
20260504011328 16 0 0.0 0.0 0.00 0.00 0.00 69 1024.5
20260504010821 16 0 0.0 0.0 0.00 0.00 0.00 69 1024.5
20260504010314 16 0 0.0 0.0 0.00 0.00 0.00 68 1024.5
20260504005808 17 0 0.0 0.0 0.00 0.00 0.00 68 1024.6
20260504005304 17 0 0.0 0.0 0.00 0.00 0.00 68 1024.6
20260504004758 16 0 0.0 0.0 0.00 0.00 0.00 68 1024.6
20260504004252 17 0 0.0 0.0 0.00 0.00 0.00 68 1024.6
20260504003746 17 0 0.0 0.0 0.00 0.00 0.00 68 1024.4
20260504002734 17 0 0.0 0.0 0.00 0.00 0.00 68 1024.5
20260504002229 17 0 0.0 0.0 0.00 0.00 0.00 68 1024.5
20260504001725 17 0 0.0 0.0 0.00 0.00 0.00 67 1024.6
20260504001220 17 0 0.0 0.0 0.00 0.00 0.00 67 1024.6
20260504000206 17 0 0.0 0.0 0.00 0.00 0.00 67 1024.6
20260503235152 17 0 0.0 0.0 0.00 0.00 0.00 67 1024.5
20260503234648 17 0 0.0 0.0 0.00 0.00 0.00 67 1024.5
20260503233637 17 0 0.0 0.0 0.00 0.00 0.00 67 1024.5
20260503233130 17 0 0.0 0.0 0.00 0.00 0.00 68 1024.5
20260503232626 17 0 0.0 0.0 0.00 0.00 0.00 67 1024.4
20260503232120 17 0 0.0 0.0 0.00 0.00 0.00 67 1024.4
20260503231107 17 0 0.0 0.0 0.00 0.00 0.00 67 1024.3
20260503230600 17 0 0.0 0.0 0.00 0.00 0.00 68 1024.2
20260503230054 17 0 0.0 0.0 0.00 0.00 0.00 68 1024.3
20260503225548 17 0 0.0 0.0 0.00 0.00 0.00 69 1024.2
20260503224538 17 0 0.0 0.0 0.00 0.00 0.00 69 1024.1
20260503224032 17 0 0.0 0.0 0.00 0.00 0.00 68 1024.1
20260503223526 17 0 0.0 0.0 0.00 0.00 0.00 68 1024.0
20260503223021 17 0 0.0 0.0 0.00 0.00 0.00 68 1024.0
20260503222007 17 0 0.0 0.0 0.00 0.00 0.00 68 1023.9
20260503221503 17 0 0.0 0.0 0.00 0.00 0.00 68 1023.8
20260503220959 17 0 0.0 0.0 0.00 0.00 0.00 68 1023.7
20260503220453 17 0 0.0 0.0 0.00 0.00 0.00 67 1023.7
20260503215947 17 0 0.0 0.0 0.00 0.00 0.00 67 1023.8
20260503215440 17 0 0.0 0.0 0.00 0.00 0.00 67 1023.7
20260503214936 18 0 0.0 0.0 0.00 0.00 0.00 67 1023.6
20260503214432 18 0 0.0 0.0 0.00 0.00 0.00 67 1023.7
20260503213928 18 0 0.0 0.0 0.00 0.00 0.00 67 1023.6
20260503213421 18 0 0.0 0.0 0.00 0.00 0.00 67 1023.6
20260503212913 18 0 0.0 0.0 0.00 0.00 0.00 67 1023.5
20260503212831 18 0 0.0 0.0 0.00 0.00 0.00 67 1023.5
20260503212720 18 0 0.0 0.0 0.00 0.00 0.00 67 1023.5
20260503212223 18 0 0.0 0.0 0.00 0.00 0.00 66 1023.5
20260503211210 18 0 0.0 0.0 0.00 0.00 0.00 66 1023.4
20260503210703 18 0 0.0 0.0 0.00 0.00 0.00 66 1023.4
20260503205647 18 0 0.0 0.0 0.00 0.00 0.00 65 1023.4
20260503205142 18 0 0.0 0.0 0.00 0.00 0.00 65 1023.4
20260503204126 18 0 0.0 0.0 0.00 0.00 0.00 66 1023.4
20260503203620 18 0 0.0 0.0 0.00 0.00 0.00 64 1023.3
20260503203332 18 0 0.0 0.0 0.00 0.00 0.00 65 1023.3
20260503203230 18 0 0.0 0.0 0.00 0.00 0.00 64 1023.3
20260503202724 18 0 0.0 0.0 0.00 0.00 0.00 64 1023.3
20260503202218 18 0 0.0 0.0 0.00 0.00 0.00 63 1023.3
20260503201709 19 0 0.0 0.0 0.00 0.00 0.00 62 1023.3
20260503200321 22 0 0.0 0.0 0.00 0.00 0.00 52 1023.0
20260503195816 23 0 0.0 0.0 0.00 0.00 0.00 55 1022.9
20260503195244 22 0 0.0 0.0 0.00 0.00 0.00 55 1022.9
20260503194740 22 0 0.0 0.0 0.00 0.00 0.00 56 1022.8
20260503194422 22 0 0.0 0.0 0.00 0.00 0.00 57 1022.8
20260503193919 21 0 0.0 0.0 0.00 0.00 0.00 59 1022.7
20260503193726 21 0 0.0 0.0 0.00 0.00 0.00 60 1022.7
20260503193221 20 0 0.0 0.0 0.00 0.00 0.00 62 1022.8
20260503192212 20 0 0.0 0.0 0.00 0.00 0.00 60 1022.7
20260503191708 20 0 0.0 0.0 0.00 0.00 0.00 61 1022.7